User: anonymous   Login
Location: Campo Alegre
(10.4289°N, 66.6519°W)
Time: 15:44:34
(UTC+00:00)
Language:

Radarsat Rocket - Orbit

View from above orbital plane
View from above orbital plane
View from above satellite
View from above satellite

Ground track
Ground track

The orbit data is extracted from the following two-line orbital elements,

1 23711U 95059B   24207.48323385  .00000015  00000-0  12213-3 0  9991
2 23711 100.5656 230.7442 0367330 221.3822 279.2444 13.12796291376327
Epoch (UTC): 25 July 2024 11:35:51
Eccentricity: 0.0367330
inclination: 100.5656°
perigee height: 933 km
apogee height: 1491 km
right ascension of ascending node: 230.7442°
argument of perigee: 221.3822°
revolutions per day: 13.12796291
mean anomaly at epoch: 279.2444°
orbit number at epoch: 37632

The dashed part of the orbit path shows where the satellite is in the earth's shadow,  

DLR